| time (UTC) | temp F | wind direction | speed knots | gust knots | rain 1hr in | rain 24hr in | rain mn in | humidity % | barometer mb |
| 20260503053054 | 76 | 248 | 1.7 | 6.1 | 0.00 | 0.00 | 0.00 | 81 | 1014.9 |
| 20260503052551 | 76 | 227 | 2.6 | 6.1 | 0.00 | 0.00 | 0.00 | 81 | 1015.1 |
| 20260503052051 | 76 | 244 | 3.5 | 6.1 | 0.00 | 0.00 | 0.00 | 81 | 1015.3 |
| 20260503051553 | 77 | 240 | 3.5 | 7.0 | 0.00 | 0.00 | 0.00 | 81 | 1015.3 |
| 20260503051056 | 77 | 221 | 3.5 | 7.0 | 0.00 | 0.00 | 0.00 | 81 | 1015.5 |
| 20260503050553 | 77 | 279 | 3.5 | 7.0 | 0.00 | 0.00 | 0.00 | 81 | 1015.6 |
| 20260503045553 | 77 | 245 | 4.3 | 7.8 | 0.00 | 0.00 | 0.00 | 81 | 1015.4 |
| 20260503045052 | 77 | 254 | 3.5 | 7.8 | 0.00 | 0.00 | 0.00 | 82 | 1015.6 |
| 20260503044556 | 77 | 219 | 3.5 | 7.8 | 0.00 | 0.00 | 0.00 | 82 | 1015.5 |
| 20260503044055 | 77 | 224 | 3.5 | 7.8 | 0.00 | 0.00 | 0.00 | 82 | 1015.6 |
| 20260503043552 | 77 | 243 | 3.5 | 9.6 | 0.00 | 0.00 | 0.00 | 82 | 1015.6 |
| 20260503043054 | 77 | 257 | 4.3 | 9.6 | 0.00 | 0.00 | 0.00 | 81 | 1015.6 |
| 20260503042554 | 77 | 248 | 4.3 | 8.7 | 0.00 | 0.00 | 0.00 | 81 | 1015.5 |
| 20260503042055 | 78 | 252 | 4.3 | 8.7 | 0.00 | 0.00 | 0.00 | 81 | 1015.6 |
| 20260503041559 | 78 | 246 | 2.6 | 7.8 | 0.00 | 0.00 | 0.00 | 81 | 1015.6 |
| 20260503041055 | 78 | 295 | 3.5 | 7.8 | 0.00 | 0.00 | 0.00 | 81 | 1015.4 |
| 20260503040551 | 78 | 247 | 5.2 | 7.8 | 0.00 | 0.00 | 0.00 | 81 | 1015.3 |
| 20260503040056 | 79 | 257 | 3.5 | 7.8 | 0.00 | 0.00 | 0.00 | 81 | 1015.2 |
| 20260503035552 | 79 | 308 | 2.6 | 7.8 | 0.00 | 0.00 | 0.00 | 81 | 1015.1 |
| 20260503035054 | 79 | 263 | 4.3 | 8.7 | 0.00 | 0.00 | 0.00 | 81 | 1015.4 |
| 20260503034557 | 79 | 281 | 4.3 | 8.7 | 0.00 | 0.00 | 0.00 | 81 | 1015.2 |
| 20260503034052 | 79 | 248 | 4.3 | 7.0 | 0.00 | 0.00 | 0.00 | 80 | 1015.3 |
| 20260503033551 | 79 | 239 | 3.5 | 7.0 | 0.00 | 0.00 | 0.00 | 80 | 1015.2 |
| 20260503033100 | 79 | 261 | 2.6 | 7.0 | 0.00 | 0.00 | 0.00 | 80 | 1015.0 |
| 20260503032552 | 78 | 268 | 3.5 | 7.8 | 0.00 | 0.00 | 0.00 | 80 | 1015.0 |
| 20260503032053 | 78 | 261 | 3.5 | 7.8 | 0.00 | 0.00 | 0.00 | 80 | 1014.8 |
| 20260503031557 | 78 | 252 | 3.5 | 7.0 | 0.00 | 0.00 | 0.00 | 79 | 1014.9 |
| 20260503031051 | 78 | 224 | 2.6 | 7.0 | 0.00 | 0.00 | 0.00 | 79 | 1014.9 |
| 20260503030553 | 78 | 203 | 3.5 | 8.7 | 0.00 | 0.00 | 0.00 | 79 | 1014.9 |
| 20260503030054 | 79 | 248 | 3.5 | 8.7 | 0.00 | 0.00 | 0.00 | 79 | 1015.0 |
| 20260503025551 | 79 | 243 | 4.3 | 8.7 | 0.00 | 0.00 | 0.00 | 79 | 1015.0 |
| 20260503025057 | 78 | 263 | 4.3 | 8.7 | 0.00 | 0.00 | 0.00 | 78 | 1014.9 |
| 20260503024553 | 78 | 248 | 3.5 | 7.0 | 0.00 | 0.00 | 0.00 | 78 | 1014.8 |
| 20260503024055 | 78 | 250 | 3.5 | 7.0 | 0.00 | 0.00 | 0.00 | 78 | 1014.8 |
| 20260503023552 | 79 | 273 | 3.5 | 7.0 | 0.00 | 0.00 | 0.00 | 77 | 1014.8 |
| 20260503023052 | 79 | 263 | 3.5 | 7.0 | 0.00 | 0.00 | 0.00 | 77 | 1015.0 |
| 20260503022551 | 79 | 248 | 3.5 | 8.7 | 0.00 | 0.00 | 0.00 | 77 | 1014.9 |
| 20260503022055 | 79 | 248 | 4.3 | 8.7 | 0.00 | 0.00 | 0.00 | 76 | 1014.9 |
| 20260503021554 | 79 | 246 | 3.5 | 7.0 | 0.00 | 0.00 | 0.00 | 76 | 1014.8 |
| 20260503021051 | 79 | 249 | 2.6 | 6.1 | 0.00 | 0.00 | 0.00 | 76 | 1014.9 |
| 20260503020551 | 79 | 248 | 2.6 | 6.1 | 0.00 | 0.00 | 0.00 | 75 | 1014.8 |
| 20260503020052 | 80 | 261 | 3.5 | 9.6 | 0.00 | 0.00 | 0.00 | 74 | 1014.7 |
| 20260503015552 | 80 | 252 | 2.6 | 9.6 | 0.00 | 0.00 | 0.00 | 73 | 1014.7 |
| 20260503015054 | 80 | 245 | 3.5 | 7.8 | 0.00 | 0.00 | 0.00 | 73 | 1014.6 |
| 20260503014612 | 80 | 255 | 5.2 | 7.8 | 0.00 | 0.00 | 0.00 | 72 | 1014.7 |
| 20260503014051 | 80 | 249 | 4.3 | 8.7 | 0.00 | 0.00 | 0.00 | 72 | 1014.6 |
| 20260503013552 | 80 | 249 | 4.3 | 8.7 | 0.00 | 0.00 | 0.00 | 72 | 1014.6 |
| 20260503013053 | 80 | 269 | 3.5 | 8.7 | 0.00 | 0.00 | 0.00 | 71 | 1014.5 |
| 20260503012551 | 81 | 251 | 4.3 | 9.6 | 0.00 | 0.00 | 0.00 | 70 | 1014.4 |
| 20260503012051 | 81 | 254 | 4.3 | 9.6 | 0.00 | 0.00 | 0.00 | 70 | 1014.3 |
| 20260503011620 | 81 | 258 | 5.2 | 9.6 | 0.00 | 0.00 | 0.00 | 69 | 1014.2 |
| 20260503011054 | 81 | 236 | 5.2 | 9.6 | 0.00 | 0.00 | 0.00 | 69 | 1014.1 |
| 20260503010551 | 81 | 231 | 5.2 | 9.6 | 0.00 | 0.00 | 0.00 | 69 | 1014.2 |
| 20260503010055 | 82 | 248 | 5.2 | 8.7 | 0.00 | 0.00 | 0.00 | 68 | 1014.1 |
| 20260503005554 | 82 | 240 | 6.1 | 8.7 | 0.00 | 0.00 | 0.00 | 67 | 1014.1 |
| 20260503005052 | 82 | 252 | 6.1 | 10.4 | 0.00 | 0.00 | 0.00 | 66 | 1013.9 |
| 20260503004555 | 82 | 245 | 6.1 | 11.3 | 0.00 | 0.00 | 0.00 | 65 | 1013.9 |
| 20260503004052 | 82 | 279 | 6.1 | 11.3 | 0.00 | 0.00 | 0.00 | 65 | 1013.9 |
| 20260503003554 | 83 | 258 | 5.2 | 9.6 | 0.00 | 0.00 | 0.00 | 64 | 1013.9 |
| 20260503003107 | 83 | 244 | 6.1 | 12.2 | 0.00 | 0.00 | 0.00 | 63 | 1013.8 |
| 20260503002551 | 83 | 253 | 6.1 | 12.2 | 0.00 | 0.00 | 0.00 | 63 | 1013.7 |
| 20260503002051 | 83 | 240 | 7.8 | 12.2 | 0.00 | 0.00 | 0.00 | 62 | 1013.7 |
| 20260503001553 | 84 | 246 | 7.0 | 12.2 | 0.00 | 0.00 | 0.00 | 61 | 1013.5 |
| 20260503001052 | 84 | 244 | 7.0 | 12.2 | 0.00 | 0.00 | 0.00 | 61 | 1013.4 |
| 20260503000552 | 84 | 265 | 7.8 | 13.0 | 0.00 | 0.00 | 0.00 | 61 | 1013.3 |
| 20260503000055 | 84 | 265 | 7.0 | 13.0 | 0.00 | 0.00 | 0.00 | 60 | 1013.4 |
| 20260502235551 | 85 | 259 | 7.8 | 11.3 | 0.00 | 0.00 | 0.00 | 59 | 1013.3 |
| 20260502235051 | 85 | 248 | 6.1 | 10.4 | 0.00 | 0.00 | 0.00 | 58 | 1013.2 |
| 20260502234614 | 85 | 250 | 5.2 | 9.6 | 0.00 | 0.00 | 0.00 | 57 | 1013.2 |
| 20260502234051 | 86 | 252 | 7.0 | 11.3 | 0.00 | 0.00 | 0.00 | 55 | 1013.0 |
| 20260502233551 | 86 | 250 | 7.0 | 11.3 | 0.00 | 0.00 | 0.00 | 54 | 1012.9 |
| 20260502233057 | 86 | 255 | 5.2 | 10.4 | 0.00 | 0.00 | 0.00 | 55 | 1012.8 |
| 20260502232552 | 86 | 277 | 6.1 | 8.7 | 0.00 | 0.00 | 0.00 | 52 | 1012.8 |
| 20260502232051 | 87 | 248 | 5.2 | 8.7 | 0.00 | 0.00 | 0.00 | 55 | 1012.7 |
| 20260502231558 | 87 | 265 | 5.2 | 7.8 | 0.00 | 0.00 | 0.00 | 52 | 1012.5 |
| 20260502231053 | 87 | 242 | 4.3 | 8.7 | 0.00 | 0.00 | 0.00 | 51 | 1012.4 |
| 20260502230554 | 87 | 259 | 4.3 | 8.7 | 0.00 | 0.00 | 0.00 | 51 | 1012.4 |
| 20260502230100 | 88 | 244 | 4.3 | 7.8 | 0.00 | 0.00 | 0.00 | 47 | 1012.4 |
| 20260502225551 | 88 | 269 | 4.3 | 7.8 | 0.00 | 0.00 | 0.00 | 50 | 1012.2 |
| 20260502225050 | 88 | 263 | 3.5 | 8.7 | 0.00 | 0.00 | 0.00 | 46 | 1012.1 |
| 20260502224556 | 88 | 268 | 4.3 | 10.4 | 0.00 | 0.00 | 0.00 | 45 | 1012.0 |
| 20260502224052 | 89 | 262 | 5.2 | 11.3 | 0.00 | 0.00 | 0.00 | 45 | 1012.0 |
| 20260502223551 | 89 | 285 | 5.2 | 11.3 | 0.00 | 0.00 | 0.00 | 44 | 1012.0 |
| 20260502223102 | 89 | 278 | 5.2 | 11.3 | 0.00 | 0.00 | 0.00 | 43 | 1011.9 |
| 20260502222551 | 90 | 249 | 5.2 | 13.0 | 0.00 | 0.00 | 0.00 | 42 | 1011.9 |
| 20260502222050 | 90 | 234 | 6.1 | 13.0 | 0.00 | 0.00 | 0.00 | 42 | 1011.8 |
| 20260502221557 | 90 | 215 | 8.7 | 15.6 | 0.00 | 0.00 | 0.00 | 41 | 1011.9 |
| 20260502221051 | 90 | 254 | 7.8 | 15.6 | 0.00 | 0.00 | 0.00 | 44 | 1011.9 |
| 20260502220551 | 90 | 266 | 7.0 | 13.9 | 0.00 | 0.00 | 0.00 | 43 | 1011.8 |
| 20260502220103 | 90 | 255 | 7.8 | 13.9 | 0.00 | 0.00 | 0.00 | 43 | 1011.8 |
| 20260502215554 | 90 | 242 | 8.7 | 13.9 | 0.00 | 0.00 | 0.00 | 43 | 1011.7 |
| 20260502215051 | 91 | 256 | 7.0 | 13.9 | 0.00 | 0.00 | 0.00 | 43 | 1011.7 |
| 20260502214559 | 90 | 209 | 7.8 | 14.8 | 0.00 | 0.00 | 0.00 | 43 | 1011.6 |
| 20260502214051 | 91 | 272 | 5.2 | 14.8 | 0.00 | 0.00 | 0.00 | 42 | 1011.7 |
| 20260502213552 | 91 | 267 | 8.7 | 14.8 | 0.00 | 0.00 | 0.00 | 43 | 1011.6 |
| 20260502213054 | 90 | 281 | 7.0 | 13.0 | 0.00 | 0.00 | 0.00 | 45 | 1011.6 |
| 20260502212551 | 91 | 296 | 7.8 | 15.6 | 0.00 | 0.00 | 0.00 | 42 | 1011.5 |
| 20260502212052 | 91 | 277 | 7.8 | 15.6 | 0.00 | 0.00 | 0.00 | 44 | 1011.5 |
| 20260502211556 | 91 | 275 | 7.0 | 15.6 | 0.00 | 0.00 | 0.00 | 42 | 1011.5 |
| 20260502211050 | 91 | 259 | 10.4 | 15.6 | 0.00 | 0.00 | 0.00 | 42 | 1011.5 |
| 20260502210550 | 91 | 238 | 7.0 | 17.4 | 0.00 | 0.00 | 0.00 | 40 | 1011.5 |
| 20260502210054 | 91 | 266 | 7.8 | 17.4 | 0.00 | 0.00 | 0.00 | 40 | 1011.4 |
| 20260502205550 | 91 | 248 | 9.6 | 16.5 | 0.00 | 0.00 | 0.00 | 40 | 1011.3 |
| 20260502205051 | 91 | 248 | 7.8 | 13.9 | 0.00 | 0.00 | 0.00 | 43 | 1011.4 |
| 20260502204559 | 91 | 236 | 8.7 | 16.5 | 0.00 | 0.00 | 0.00 | 41 | 1011.4 |
| 20260502204051 | 91 | 258 | 7.8 | 16.5 | 0.00 | 0.00 | 0.00 | 42 | 1011.4 |
| 20260502203552 | 91 | 251 | 7.8 | 16.5 | 0.00 | 0.00 | 0.00 | 41 | 1011.5 |
| 20260502203116 | 91 | 257 | 8.7 | 16.5 | 0.00 | 0.00 | 0.00 | 42 | 1011.5 |
| 20260502202551 | 91 | 242 | 11.3 | 18.2 | 0.00 | 0.00 | 0.00 | 40 | 1011.4 |
| 20260502202054 | 91 | 243 | 11.3 | 18.2 | 0.00 | 0.00 | 0.00 | 42 | 1011.5 |
| 20260502201609 | 91 | 264 | 9.6 | 14.8 | 0.00 | 0.00 | 0.00 | 43 | 1011.5 |
| 20260502201054 | 91 | 277 | 8.7 | 13.9 | 0.00 | 0.00 | 0.00 | 45 | 1011.7 |
| 20260502200553 | 91 | 263 | 9.6 | 18.2 | 0.00 | 0.00 | 0.00 | 45 | 1011.7 |
| 20260502200100 | 91 | 252 | 11.3 | 18.2 | 0.00 | 0.00 | 0.00 | 45 | 1011.6 |
| 20260502195550 | 91 | 252 | 11.3 | 18.2 | 0.00 | 0.00 | 0.00 | 45 | 1011.7 |
| 20260502195050 | 91 | 281 | 9.6 | 15.6 | 0.00 | 0.00 | 0.00 | 45 | 1011.8 |
| 20260502194555 | 91 | 243 | 10.4 | 20.0 | 0.00 | 0.00 | 0.00 | 47 | 1011.7 |
| 20260502194051 | 91 | 269 | 8.7 | 20.0 | 0.00 | 0.00 | 0.00 | 46 | 1011.7 |
| 20260502193553 | 91 | 253 | 11.3 | 19.1 | 0.00 | 0.00 | 0.00 | 45 | 1011.9 |
| 20260502193106 | 91 | 246 | 10.4 | 16.5 | 0.00 | 0.00 | 0.00 | 46 | 1011.9 |
| 20260502192552 | 91 | 261 | 7.0 | 19.1 | 0.00 | 0.00 | 0.00 | 47 | 1011.9 |
| 20260502192050 | 91 | 251 | 9.6 | 19.1 | 0.00 | 0.00 | 0.00 | 47 | 1012.1 |
| 20260502191556 | 91 | 238 | 9.6 | 19.1 | 0.00 | 0.00 | 0.00 | 46 | 1012.0 |
| 20260502191051 | 91 | 248 | 11.3 | 19.1 | 0.00 | 0.00 | 0.00 | 46 | 1012.1 |
| 20260502190551 | 91 | 259 | 11.3 | 18.2 | 0.00 | 0.00 | 0.00 | 45 | 1012.1 |
| 20260502190052 | 91 | 234 | 12.2 | 18.2 | 0.00 | 0.00 | 0.00 | 45 | 1012.1 |
| 20260502185550 | 91 | 257 | 7.8 | 19.1 | 0.00 | 0.00 | 0.00 | 45 | 1012.2 |
| 20260502185050 | 91 | 252 | 10.4 | 19.1 | 0.00 | 0.00 | 0.00 | 49 | 1012.1 |
| 20260502184556 | 91 | 259 | 9.6 | 17.4 | 0.00 | 0.00 | 0.00 | 49 | 1012.1 |
| 20260502184050 | 91 | 244 | 8.7 | 19.1 | 0.00 | 0.00 | 0.00 | 49 | 1012.1 |
| 20260502183551 | 91 | 240 | 10.4 | 19.1 | 0.00 | 0.00 | 0.00 | 46 | 1012.2 |
| 20260502183056 | 91 | 244 | 10.4 | 19.1 | 0.00 | 0.00 | 0.00 | 47 | 1012.2 |
| 20260502182550 | 91 | 242 | 9.6 | 17.4 | 0.00 | 0.00 | 0.00 | 47 | 1012.2 |
| 20260502182051 | 91 | 241 | 10.4 | 18.2 | 0.00 | 0.00 | 0.00 | 50 | 1012.2 |
| 20260502181551 | 91 | 217 | 8.7 | 19.1 | 0.00 | 0.00 | 0.00 | 49 | 1012.3 |
| 20260502181051 | 91 | 250 | 11.3 | 19.1 | 0.00 | 0.00 | 0.00 | 48 | 1012.2 |
| 20260502180551 | 90 | 257 | 13.0 | 19.1 | 0.00 | 0.00 | 0.00 | 53 | 1012.4 |
| 20260502164051 | 89 | 183 | 6.1 | 12.2 | 0.00 | 0.00 | 0.00 | 61 | 1013.0 |
| 20260502163551 | 88 | 195 | 6.1 | 10.4 | 0.00 | 0.00 | 0.00 | 63 | 1012.9 |
| 20260502163058 | 88 | 242 | 5.2 | 13.0 | 0.00 | 0.00 | 0.00 | 64 | 1013.0 |
| 20260502162551 | 88 | 233 | 6.1 | 13.0 | 0.00 | 0.00 | 0.00 | 64 | 1013.0 |
| 20260502162052 | 88 | 266 | 5.2 | 13.9 | 0.00 | 0.00 | 0.00 | 63 | 1013.1 |
| 20260502161553 | 88 | 220 | 7.8 | 13.9 | 0.00 | 0.00 | 0.00 | 63 | 1013.2 |
| 20260502161051 | 88 | 246 | 5.2 | 11.3 | 0.00 | 0.00 | 0.00 | 63 | 1013.2 |
| 20260502160551 | 87 | 250 | 6.1 | 11.3 | 0.00 | 0.00 | 0.00 | 64 | 1013.2 |
| 20260502152051 | 86 | 234 | 7.0 | 13.0 | 0.00 | 0.00 | 0.00 | 65 | 1013.5 |
| 20260502151612 | 86 | 244 | 7.0 | 13.0 | 0.00 | 0.00 | 0.00 | 65 | 1013.6 |
| 20260502151052 | 86 | 218 | 7.0 | 13.0 | 0.00 | 0.00 | 0.00 | 65 | 1013.6 |
| 20260502150550 | 87 | 281 | 2.6 | 12.2 | 0.00 | 0.00 | 0.00 | 65 | 1013.6 |
| 20260502140104 | 84 | 235 | 4.3 | 13.0 | 0.00 | 0.00 | 0.00 | 70 | 1013.1 |
| 20260502130555 | 81 | 258 | 3.5 | 7.8 | 0.00 | 0.00 | 0.00 | 80 | 1013.2 |
| 20260502123553 | 80 | 120 | 1.7 | 5.2 | 0.00 | 0.00 | 0.00 | 83 | 1013.2 |
| 20260502123057 | 79 | 163 | 1.7 | 5.2 | 0.00 | 0.00 | 0.00 | 84 | 1013.3 |
| 20260502122551 | 79 | 176 | 2.6 | 6.1 | 0.00 | 0.00 | 0.00 | 84 | 1013.3 |
| 20260502122055 | 79 | 208 | 1.7 | 6.1 | 0.00 | 0.00 | 0.00 | 84 | 1013.4 |
| 20260502121601 | 78 | 155 | 1.7 | 5.2 | 0.00 | 0.00 | 0.00 | 85 | 1013.3 |
| 20260502121058 | 78 | 170 | 0.9 | 3.5 | 0.00 | 0.00 | 0.00 | 85 | 1013.4 |
| 20260502120556 | 77 | 145 | 0.9 | 5.2 | 0.00 | 0.00 | 0.00 | 86 | 1013.3 |
| 20260502115554 | 77 | 186 | 0.9 | 3.5 | 0.00 | 0.00 | 0.00 | 86 | 1013.2 |
| 20260502115054 | 76 | 155 | 0.0 | 2.6 | 0.00 | 0.00 | 0.00 | 87 | 1013.3 |
| 20260502114559 | 76 | 131 | 0.9 | 2.6 | 0.00 | 0.00 | 0.00 | 87 | 1013.2 |
| 20260502114055 | 76 | 160 | 0.0 | 2.6 | 0.00 | 0.00 | 0.00 | 87 | 1013.3 |
| 20260502113554 | 75 | 105 | 0.0 | 2.6 | 0.00 | 0.00 | 0.00 | 87 | 1013.1 |
| 20260502113104 | 75 | 0 | 0.0 | 0.0 | 0.00 | 0.00 | 0.00 | 87 | 1013.3 |
| 20260502112554 | 75 | 0 | 0.0 | 0.0 | 0.00 | 0.00 | 0.00 | 87 | 1013.3 |
| 20260502112050 | 75 | 0 | 0.0 | 0.0 | 0.00 | 0.00 | 0.00 | 87 | 1013.4 |
| 20260502111601 | 75 | 0 | 0.0 | 0.0 | 0.00 | 0.00 | 0.00 | 87 | 1013.4 |
| 20260502111053 | 74 | 0 | 0.0 | 0.0 | 0.00 | 0.00 | 0.00 | 87 | 1013.4 |
| 20260502110551 | 74 | 0 | 0.0 | 0.0 | 0.00 | 0.00 | 0.00 | 87 | 1013.3 |
| 20260502110055 | 74 | 0 | 0.0 | 0.0 | 0.00 | 0.00 | 0.00 | 86 | 1013.3 |
| 20260502105554 | 74 | 0 | 0.0 | 0.0 | 0.00 | 0.00 | 0.00 | 86 | 1013.3 |
| 20260502105051 | 74 | 0 | 0.0 | 0.0 | 0.00 | 0.00 | 0.00 | 86 | 1013.3 |
| 20260502104607 | 74 | 0 | 0.0 | 0.0 | 0.00 | 0.00 | 0.00 | 86 | 1013.1 |
| 20260502104054 | 75 | 0 | 0.0 | 0.0 | 0.00 | 0.00 | 0.00 | 86 | 1013.1 |
| 20260502103554 | 75 | 0 | 0.0 | 0.0 | 0.00 | 0.00 | 0.00 | 86 | 1013.2 |
| 20260502103052 | 75 | 0 | 0.0 | 0.0 | 0.00 | 0.00 | 0.00 | 86 | 1013.2 |
| 20260502102557 | 75 | 0 | 0.0 | 0.0 | 0.00 | 0.00 | 0.00 | 86 | 1013.3 |
| 20260502102053 | 75 | 0 | 0.0 | 0.0 | 0.00 | 0.00 | 0.00 | 86 | 1013.3 |
| 20260502101607 | 75 | 0 | 0.0 | 0.0 | 0.00 | 0.00 | 0.00 | 86 | 1013.1 |
| 20260502101051 | 75 | 0 | 0.0 | 0.0 | 0.00 | 0.00 | 0.00 | 86 | 1013.0 |
| 20260502100557 | 75 | 0 | 0.0 | 0.0 | 0.00 | 0.00 | 0.00 | 86 | 1013.0 |
| 20260502091055 | 74 | 0 | 0.0 | 1.7 | 0.00 | 0.00 | 0.00 | 85 | 1013.2 |
| 20260502090552 | 75 | 279 | 0.0 | 1.7 | 0.00 | 0.00 | 0.00 | 85 | 1013.3 |
| 20260502071053 | 74 | 297 | 0.0 | 1.7 | 0.00 | 0.00 | 0.00 | 83 | 1013.3 |
| 20260502070554 | 74 | 289 | 0.0 | 1.7 | 0.00 | 0.00 | 0.00 | 82 | 1013.3 |
| 20260502070115 | 74 | 315 | 0.0 | 1.7 | 0.00 | 0.00 | 0.00 | 82 | 1013.3 |
| 20260502065551 | 74 | 0 | 0.0 | 1.7 | 0.00 | 0.00 | 0.00 | 82 | 1013.3 |
| 20260502065054 | 74 | 0 | 0.0 | 1.7 | 0.00 | 0.00 | 0.00 | 82 | 1013.4 |
| 20260502064555 | 74 | 277 | 0.9 | 1.7 | 0.00 | 0.00 | 0.00 | 82 | 1013.5 |
| 20260502064053 | 75 | 297 | 0.0 | 2.6 | 0.00 | 0.00 | 0.00 | 82 | 1013.4 |
| 20260502063554 | 75 | 266 | 0.9 | 3.5 | 0.00 | 0.00 | 0.00 | 82 | 1013.5 |
| 20260502063111 | 75 | 266 | 0.9 | 3.5 | 0.00 | 0.00 | 0.00 | 81 | 1013.5 |
| 20260502062558 | 75 | 267 | 0.9 | 3.5 | 0.00 | 0.00 | 0.00 | 82 | 1013.4 |
| 20260502062054 | 75 | 279 | 0.0 | 2.6 | 0.00 | 0.00 | 0.00 | 81 | 1013.5 |
| 20260502061554 | 75 | 0 | 0.0 | 2.6 | 0.00 | 0.00 | 0.00 | 80 | 1013.5 |
| 20260502061053 | 75 | 266 | 0.0 | 1.7 | 0.00 | 0.00 | 0.00 | 80 | 1013.5 |
| 20260502060554 | 75 | 0 | 0.0 | 1.7 | 0.00 | 0.00 | 0.00 | 79 | 1013.5 |
| 20260502060059 | 75 | 286 | 0.0 | 1.7 | 0.00 | 0.00 | 0.00 | 78 | 1013.6 |
| 20260502055551 | 75 | 0 | 0.0 | 1.7 | 0.00 | 0.00 | 0.00 | 78 | 1013.5 |
| 20260502055057 | 75 | 294 | 0.0 | 1.7 | 0.00 | 0.00 | 0.00 | 78 | 1013.5 |
| 20260502054602 | 76 | 0 | 0.0 | 0.0 | 0.00 | 0.00 | 0.00 | 78 | 1013.5 |
| 20260502054057 | 76 | 0 | 0.0 | 0.0 | 0.00 | 0.00 | 0.00 | 78 | 1013.5 |
| 20260502053553 | 76 | 0 | 0.0 | 0.0 | 0.00 | 0.00 | 0.00 | 78 | 1013.5 |